INMARSAT 6-F1

Last updated on Tue Sep 16 2025 00:02:50 GMT+0000 (Coordinated Universal Time)

1 50319U 21128A 25257.99136337 .00000000 00000+0 00000+0 0 9992 2 50319 0.0222 145.6091 0000385 114.8354 174.4038 1.00270740 13499
UTC large
Height (km)
Speed (km/s)
/
Latitude / Longitude
Inclination (degrees)
Orbital Period (minutes)
Azimuth
Elevation
Range (km)
Doppler Factor

Next 0 passes for location: London (51.5072 / 0.1276)

Sorry there are no passes over London.